TimePST,TemperatureF,Dew PointF,Humidity,Sea Level PressureIn,VisibilityMPH,Wind Direction,Wind SpeedMPH,Gust SpeedMPH,PrecipitationIn,Events,Conditions,WindDirDegrees,DateUTC
12:55 AM,37.9,12.9,36,30.22,10.0,Calm,Calm,-,N/A,,Clear,0,2012-11-24 08:55:00
1:55 AM,36.0,14.0,41,30.21,10.0,NE,3.5,-,N/A,,Clear,40,2012-11-24 09:55:00
2:55 AM,33.1,12.9,43,30.21,10.0,WNW,3.5,-,N/A,,Clear,300,2012-11-24 10:55:00
3:55 AM,34.0,15.1,46,30.20,10.0,North,3.5,-,N/A,,Clear,350,2012-11-24 11:55:00
4:55 AM,33.1,14.0,46,30.21,10.0,Calm,Calm,-,N/A,,Clear,0,2012-11-24 12:55:00
5:55 AM,28.9,10.9,47,30.23,10.0,Calm,Calm,-,N/A,,Clear,0,2012-11-24 13:55:00
6:55 AM,30.9,12.0,46,30.25,10.0,Calm,Calm,-,N/A,,Clear,0,2012-11-24 14:55:00
7:55 AM,37.0,16.0,42,30.25,10.0,Calm,Calm,-,N/A,,Clear,0,2012-11-24 15:55:00
8:55 AM,42.1,16.0,35,30.25,10.0,Calm,Calm,-,N/A,,Clear,0,2012-11-24 16:55:00
9:55 AM,50.0,21.0,32,30.23,10.0,Calm,Calm,-,N/A,,Clear,0,2012-11-24 17:55:00
10:55 AM,55.9,19.9,25,30.19,10.0,Calm,Calm,-,N/A,,Clear,0,2012-11-24 18:55:00
11:55 AM,62.1,19.0,19,30.14,10.0,Calm,Calm,-,N/A,,Clear,0,2012-11-24 19:55:00
12:55 PM,66.9,19.0,16,30.10,10.0,Calm,Calm,-,N/A,,Clear,0,2012-11-24 20:55:00
1:55 PM,70.0,19.0,14,30.07,10.0,Calm,Calm,-,N/A,,Clear,0,2012-11-24 21:55:00
2:55 PM,72.0,18.0,13,30.06,10.0,Calm,Calm,-,N/A,,Clear,0,2012-11-24 22:55:00
3:55 PM,71.1,19.0,14,30.05,10.0,Calm,Calm,-,N/A,,Clear,0,2012-11-24 23:55:00
4:55 PM,63.0,18.0,18,30.05,10.0,Calm,Calm,-,N/A,,Clear,0,2012-11-25 00:55:00
5:55 PM,54.0,15.1,22,30.07,10.0,West,3.5,-,N/A,,Clear,260,2012-11-25 01:55:00
6:55 PM,51.1,15.1,24,30.06,10.0,WNW,5.8,-,N/A,,Clear,300,2012-11-25 02:55:00
7:55 PM,46.9,14.0,27,30.07,10.0,Calm,Calm,-,N/A,,Clear,0,2012-11-25 03:55:00
8:55 PM,43.0,12.9,30,30.07,10.0,Calm,Calm,-,N/A,,Clear,0,2012-11-25 04:55:00
9:55 PM,41.0,12.9,32,30.06,10.0,Calm,Calm,-,N/A,,Clear,0,2012-11-25 05:55:00
10:55 PM,41.0,12.0,31,30.04,10.0,Calm,Calm,-,N/A,,Clear,0,2012-11-25 06:55:00
11:55 PM,36.0,10.9,36,30.03,10.0,North,3.5,-,N/A,,Clear,350,2012-11-25 07:55:00